Simultaneous Nadir Overpasses (SNOs) Predictions

Prediction of SNOs between GOES-16 and NPP Satellite Orbit:

Table of predicted SNOs for the next 14.0 days since TLE Epoch: 6/1/2018
Index Date Time (GOES-16) GOES-16 Lat,Lon NPP Lat,Lon Distance(km) Time Diff (sec)
1 06/02/2018 06:38:31 -0.00, -75.20 0.60, -77.94 312.41 80
2 06/03/2018 06:17:06 -0.01, -75.20 -0.43, -73.41 204.39 80
3 06/04/2018 18:39:03 0.01, -75.21 -0.75, -78.72 398.97 80
4 06/05/2018 18:22:57 0.01, -75.22 0.22, -74.17 118.45 80
5 06/07/2018 06:44:45 -0.02, -75.23 0.93, -79.45 480.29 80
6 06/08/2018 06:23:21 -0.02, -75.24 -0.10, -74.92 37.24 80
7 06/10/2018 18:26:33 0.02, -75.27 -0.05, -75.69 47.57 80
8 06/11/2018 18:10:28 0.02, -75.29 0.97, -71.16 470.38 80
9 06/13/2018 06:32:16 -0.03, -75.31 0.23, -76.43 127.66 80
10 06/14/2018 06:10:51 -0.03, -75.32 -0.80, -71.90 390.13 80
11 06/15/2018 18:32:48 0.04, -75.34 -0.38, -77.20 212.30 80




NCC Satellite Simultaneous Nadir Overpasses (SNOs) Prediction Service
